TimeWET,TemperatureF,Dew PointF,Humidity,Sea Level PressureIn,VisibilityMPH,Wind Direction,Wind SpeedMPH,Gust SpeedMPH,PrecipitationIn,Events,Conditions,WindDirDegrees,DateUTC
12:00 AM,58,54,82,29.92,6,SSW,6.9,,,,Partly Cloudy,200,2013-04-05 00:00:00
12:00 AM,57.2,53.6,88,29.92,6.2,SSW,6.9,-,N/A,,Scattered Clouds,200,2013-04-05 00:00:00
1:00 AM,59.0,55.4,88,29.89,6.2,SSW,6.9,-,N/A,,Scattered Clouds,210,2013-04-05 01:00:00
2:00 AM,60.8,55.4,82,29.86,-9999.0,SW,10.4,-,N/A,,Scattered Clouds,230,2013-04-05 02:00:00
3:00 AM,59,54,80,29.87,6,West,15.0,,,,Mostly Cloudy,260,2013-04-05 03:00:00
3:00 AM,59.0,55.4,88,29.86,-9999.0,West,15.0,-,N/A,,Scattered Clouds,260,2013-04-05 03:00:00
4:00 AM,59.0,55.4,88,29.86,6.2,WSW,11.5,-,N/A,,Mostly Cloudy,250,2013-04-05 04:00:00
5:00 AM,57.2,53.6,88,29.86,6.2,WSW,8.1,-,N/A,,Mostly Cloudy,240,2013-04-05 05:00:00
6:00 AM,60,55,79,29.91,6,West,11.5,,,Rain,Light Rain,260,2013-04-05 06:00:00
6:00 AM,59.0,55.4,88,29.89,6.2,West,11.5,-,N/A,Rain,Light Rain,260,2013-04-05 06:00:00
7:00 AM,59.0,55.4,88,29.92,6.2,West,8.1,-,N/A,Rain,Light Rain,270,2013-04-05 07:00:00
8:00 AM,59.0,55.4,88,29.92,3.7,West,9.2,-,N/A,Rain,Rain,280,2013-04-05 08:00:00
9:00 AM,62,57,77,29.99,5,West,15.0,,,,Partly Cloudy,270,2013-04-05 09:00:00
9:00 AM,62.6,57.2,82,29.98,5.0,West,15.0,-,N/A,,Scattered Clouds,270,2013-04-05 09:00:00
10:00 AM,62.6,57.2,82,30.01,5.0,West,10.4,-,N/A,,Scattered Clouds,260,2013-04-05 10:00:00
11:00 AM,64.4,55.4,73,30.01,5.0,West,20.7,-,N/A,,Scattered Clouds,270,2013-04-05 11:00:00
12:00 PM,66,55,59,30.02,5,West,18.4,,,,Partly Cloudy,280,2013-04-05 12:00:00
12:00 PM,66.2,55.4,68,30.01,5.0,West,18.4,-,N/A,,Scattered Clouds,280,2013-04-05 12:00:00
1:00 PM,68.0,53.6,60,30.01,5.0,West,24.2,-,N/A,,Scattered Clouds,270,2013-04-05 13:00:00
2:00 PM,68.0,53.6,60,30.01,6.2,West,23.0,-,N/A,,Partly Cloudy,270,2013-04-05 14:00:00
3:00 PM,67,54,54,30.01,6,West,19.6,,,,Partly Cloudy,260,2013-04-05 15:00:00
3:00 PM,68.0,55.4,64,30.01,6.2,West,19.6,-,N/A,,Partly Cloudy,260,2013-04-05 15:00:00
4:00 PM,68.0,53.6,60,30.01,6.2,West,18.4,-,N/A,,Partly Cloudy,260,2013-04-05 16:00:00
5:00 PM,69.8,50.0,49,30.01,-9999.0,West,20.7,-,N/A,,Unknown,280,2013-04-05 17:00:00
6:00 PM,67,47,38,30.04,6,NW,20.7,,,,Partly Cloudy,310,2013-04-05 18:00:00
6:00 PM,66.2,48.2,52,30.04,6.2,NW,20.7,-,N/A,,Scattered Clouds,310,2013-04-05 18:00:00
7:00 PM,64.4,46.4,52,30.06,6.2,NW,16.1,-,N/A,,Scattered Clouds,310,2013-04-05 19:00:00
8:00 PM,60.8,46.4,59,30.09,6.2,West,6.9,-,N/A,,Scattered Clouds,270,2013-04-05 20:00:00
9:00 PM,58,48,60,30.13,,West,9.2,,,,,280,2013-04-05 21:00:00
9:00 PM,57.2,48.2,72,30.12,-9999.0,West,9.2,-,N/A,,Unknown,280,2013-04-05 21:00:00
10:00 PM,57.2,46.4,67,30.12,-9999.0,West,6.9,-,N/A,,Unknown,270,2013-04-05 22:00:00
11:00 PM,55.4,44.6,67,30.09,6.2,SW,6.9,-,N/A,,Unknown,230,2013-04-05 23:00:00